| time (UTC) | temp C | wind direction | speed KPH | gust KPH | rain 1hr cm | rain 24hr cm | rain mn cm | humidity % | barometer mb |
| 20260507011600 | 17 | 0.0 | 0.0 | 0.00 | 0.00 | 0.00 | 66 | 1001.2 | |
| 20260507010059 | 18 | 0.0 | 0.0 | 0.00 | 0.00 | 0.00 | 66 | 1001.2 | |
| 20260507004558 | 18 | 0.0 | 0.0 | 0.00 | 0.00 | 0.00 | 65 | 1001.3 | |
| 20260507003100 | 19 | 0.0 | 0.0 | 0.00 | 0.00 | 0.00 | 63 | 1001.3 | |
| 20260507001611 | 20 | 0.0 | 0.0 | 0.00 | 0.00 | 0.00 | 62 | 1001.3 | |
| 20260507000056 | 21 | 0.0 | 0.0 | 0.00 | 0.00 | 0.00 | 59 | 1001.3 | |
| 20260506234602 | 22 | 0.0 | 0.0 | 0.00 | 0.00 | 0.00 | 57 | 1001.3 | |
| 20260506233056 | 23 | 0.0 | 0.0 | 0.00 | 0.00 | 0.00 | 56 | 1001.3 | |
| 20260506231554 | 25 | 0.0 | 0.0 | 0.00 | 0.00 | 0.00 | 53 | 1001.4 | |
| 20260506230051 | 26 | 0.0 | 0.0 | 0.00 | 0.00 | 0.00 | 52 | 1001.5 | |
| 20260506224604 | 26 | 0.0 | 0.0 | 0.00 | 0.00 | 0.00 | 52 | 1001.6 | |
| 20260506223049 | 25 | 0.0 | 0.0 | 0.00 | 0.00 | 0.00 | 52 | 1001.7 | |
| 20260506221543 | 25 | 0.0 | 0.0 | 0.00 | 0.00 | 0.00 | 54 | 1001.9 | |
| 20260506220045 | 22 | 0.0 | 0.0 | 0.00 | 0.00 | 0.00 | 57 | 1002.1 | |
| 20260506214536 | 22 | 0.0 | 0.0 | 0.00 | 0.00 | 0.00 | 57 | 1002.2 | |
| 20260506213033 | 22 | 0.0 | 0.0 | 0.00 | 0.00 | 0.00 | 58 | 1002.4 | |
| 20260506211531 | 21 | 0.0 | 0.0 | 0.00 | 0.00 | 0.00 | 59 | 1002.5 | |
| 20260506210026 | 20 | 0.0 | 0.0 | 0.00 | 0.00 | 0.00 | 60 | 1002.6 | |
| 20260506204522 | 19 | 0.0 | 0.0 | 0.00 | 0.00 | 0.00 | 62 | 1002.7 | |
| 20260506203017 | 18 | 0.0 | 0.0 | 0.00 | 0.00 | 0.00 | 65 | 1003.0 | |
| 20260506201515 | 17 | 0.0 | 0.0 | 0.00 | 0.00 | 0.00 | 66 | 1003.1 | |
| 20260506200010 | 17 | 0.0 | 0.0 | 0.00 | 0.00 | 0.00 | 68 | 1003.2 | |
| 20260506194508 | 16 | 0.0 | 0.0 | 0.00 | 0.00 | 0.00 | 69 | 1003.4 | |
| 20260506193007 | 16 | 0.0 | 0.0 | 0.00 | 0.00 | 0.00 | 70 | 1003.5 | |
| 20260506191505 | 16 | 0.0 | 0.0 | 0.00 | 0.00 | 0.00 | 71 | 1003.6 | |
| 20260506190002 | 15 | 0.0 | 0.0 | 0.00 | 0.00 | 0.00 | 72 | 1003.8 | |
| 20260506184600 | 15 | 0.0 | 0.0 | 0.00 | 0.00 | 0.00 | 73 | 1003.8 | |
| 20260506183102 | 15 | 0.0 | 0.0 | 0.00 | 0.00 | 0.00 | 73 | 1003.8 | |
| 20260506181615 | 15 | 0.0 | 0.0 | 0.00 | 0.00 | 0.00 | 73 | 1003.9 | |
| 20260506180051 | 14 | 0.0 | 0.0 | 0.00 | 0.00 | 0.00 | 74 | 1003.9 | |
| 20260506174549 | 14 | 0.0 | 0.0 | 0.00 | 0.00 | 0.00 | 73 | 1003.9 | |
| 20260506173116 | 13 | 0.0 | 0.0 | 0.00 | 0.00 | 0.00 | 75 | 1004.0 | |
| 20260506171552 | 13 | 0.0 | 0.0 | 0.00 | 0.00 | 0.00 | 75 | 1004.0 | |
| 20260506170045 | 13 | 0.0 | 0.0 | 0.00 | 0.00 | 0.00 | 77 | 1004.1 | |
| 20260506164540 | 13 | 0.0 | 0.0 | 0.00 | 0.00 | 0.00 | 77 | 1004.1 | |
| 20260506163038 | 12 | 0.0 | 0.0 | 0.00 | 0.00 | 0.00 | 78 | 1004.0 | |
| 20260506161535 | 12 | 0.0 | 0.0 | 0.00 | 0.00 | 0.00 | 79 | 1004.1 | |
| 20260506160039 | 12 | 0.0 | 0.0 | 0.00 | 0.00 | 0.00 | 80 | 1004.1 | |
| 20260506154530 | 12 | 0.0 | 0.0 | 0.00 | 0.00 | 0.00 | 80 | 1004.0 | |
| 20260506153028 | 11 | 0.0 | 0.0 | 0.00 | 0.00 | 0.00 | 81 | 1004.0 | |
| 20260506151526 | 11 | 0.0 | 0.0 | 0.00 | 0.00 | 0.00 | 82 | 1004.0 | |
| 20260506150025 | 11 | 0.0 | 0.0 | 0.00 | 0.00 | 0.00 | 83 | 1003.9 | |
| 20260506144523 | 11 | 0.0 | 0.0 | 0.00 | 0.00 | 0.00 | 83 | 1003.9 | |
| 20260506143022 | 11 | 0.0 | 0.0 | 0.00 | 0.00 | 0.00 | 83 | 1003.8 | |
| 20260506141520 | 11 | 0.0 | 0.0 | 0.00 | 0.00 | 0.00 | 83 | 1003.8 | |
| 20260506140018 | 10 | 0.0 | 0.0 | 0.00 | 0.00 | 0.00 | 83 | 1003.6 | |
| 20260506134521 | 10 | 0.0 | 0.0 | 0.00 | 0.00 | 0.00 | 84 | 1003.4 | |
| 20260506133016 | 10 | 0.0 | 0.0 | 0.00 | 0.00 | 0.00 | 84 | 1003.3 | |
| 20260506131534 | 10 | 0.0 | 0.0 | 0.00 | 0.00 | 0.00 | 84 | 1003.1 | |
| 20260506130012 | 10 | 0.0 | 0.0 | 0.00 | 0.00 | 0.00 | 84 | 1003.1 | |
| 20260506124513 | 10 | 0.0 | 0.0 | 0.00 | 0.00 | 0.00 | 84 | 1002.9 | |
| 20260506123010 | 10 | 0.0 | 0.0 | 0.00 | 0.00 | 0.00 | 84 | 1002.9 | |
| 20260506121508 | 10 | 0.0 | 0.0 | 0.00 | 0.00 | 0.00 | 84 | 1002.9 | |
| 20260506120013 | 10 | 0.0 | 0.0 | 0.00 | 0.00 | 0.00 | 84 | 1002.7 | |
| 20260506114506 | 10 | 0.0 | 0.0 | 0.00 | 0.00 | 0.00 | 84 | 1002.6 | |
| 20260506113004 | 10 | 0.0 | 0.0 | 0.00 | 0.00 | 0.00 | 84 | 1002.5 | |
| 20260506111502 | 10 | 0.0 | 0.0 | 0.00 | 0.00 | 0.00 | 84 | 1002.5 | |
| 20260506110001 | 10 | 0.0 | 0.0 | 0.00 | 0.00 | 0.00 | 84 | 1002.4 | |
| 20260506104600 | 10 | 0.0 | 0.0 | 0.00 | 0.00 | 0.00 | 83 | 1002.3 | |
| 20260506103059 | 10 | 0.0 | 0.0 | 0.00 | 0.00 | 0.00 | 84 | 1002.2 | |
| 20260506101557 | 11 | 0.0 | 0.0 | 0.00 | 0.00 | 0.00 | 83 | 1002.2 | |
| 20260506100057 | 11 | 0.0 | 0.0 | 0.00 | 0.00 | 0.00 | 83 | 1002.2 | |
| 20260506094620 | 11 | 0.0 | 0.0 | 0.00 | 0.00 | 0.00 | 83 | 1002.3 | |
| 20260506093053 | 11 | 0.0 | 0.0 | 0.00 | 0.00 | 0.00 | 82 | 1002.3 | |
| 20260506091550 | 11 | 0.0 | 0.0 | 0.00 | 0.00 | 0.00 | 82 | 1002.2 | |
| 20260506090049 | 11 | 0.0 | 0.0 | 0.00 | 0.00 | 0.00 | 82 | 1002.2 | |
| 20260506084548 | 11 | 0.0 | 0.0 | 0.00 | 0.00 | 0.00 | 81 | 1002.2 | |
| 20260506083048 | 11 | 0.0 | 0.0 | 0.00 | 0.00 | 0.00 | 81 | 1002.2 | |
| 20260506081545 | 11 | 0.0 | 0.0 | 0.00 | 0.00 | 0.00 | 81 | 1002.2 | |
| 20260506073041 | 11 | 0.0 | 0.0 | 0.00 | 0.00 | 0.00 | 80 | 1002.0 | |
| 20260506071542 | 11 | 0.0 | 0.0 | 0.00 | 0.00 | 0.00 | 80 | 1002.0 | |
| 20260506061534 | 11 | 0.0 | 0.0 | 0.00 | 0.00 | 0.00 | 79 | 1001.6 | |
| 20260506044526 | 11 | 0.0 | 0.0 | 0.00 | 0.00 | 0.00 | 78 | 1000.9 | |
| 20260506043025 | 11 | 0.0 | 0.0 | 0.00 | 0.00 | 0.00 | 78 | 1000.8 | |
| 20260506041523 | 11 | 0.0 | 0.0 | 0.00 | 0.00 | 0.00 | 78 | 1000.6 | |
| 20260506040022 | 12 | 0.0 | 0.0 | 0.00 | 0.00 | 0.00 | 77 | 1000.3 | |
| 20260506034520 | 12 | 0.0 | 0.0 | 0.00 | 0.00 | 0.00 | 77 | 1000.2 | |
| 20260506033017 | 12 | 0.0 | 0.0 | 0.00 | 0.00 | 0.00 | 77 | 999.9 | |
| 20260506031518 | 12 | 0.0 | 0.0 | 0.00 | 0.00 | 0.00 | 76 | 999.9 | |
| 20260506030027 | 12 | 0.0 | 0.0 | 0.00 | 0.00 | 0.00 | 76 | 999.7 | |
| 20260506024532 | 12 | 0.0 | 0.0 | 0.00 | 0.00 | 0.00 | 76 | 999.6 | |
| 20260506023015 | 13 | 0.0 | 0.0 | 0.00 | 0.00 | 0.00 | 75 | 999.3 | |
| 20260506021514 | 13 | 0.0 | 0.0 | 0.00 | 0.00 | 0.00 | 74 | 999.3 | |
| 20260506020012 | 13 | 0.0 | 0.0 | 0.00 | 0.00 | 0.00 | 73 | 999.4 | |
| 20260506014517 | 13 | 0.0 | 0.0 | 0.00 | 0.00 | 0.00 | 72 | 999.4 | |
| 20260506013011 | 14 | 0.0 | 0.0 | 0.00 | 0.00 | 0.00 | 71 | 999.3 |